Location: Newark
(44.3681°N, 100.3364°W)
Time: 05:59:40
(UTC+00:00)

Vanguard 1 - Pass Details

Date: 24 February 2020
Orbit: 649 x 3833 km, 34.2° (Epoch: 07 April)

Event Time Altitude Azimuth Distance (km) Brightness Sun altitude
Rises 10:47:08 0° 185° (S) 7,594 14.4 -29.2°
Reaches altitude 10° 10:54:56 10° 170° (S) 6,845 14.3 -27.9°
Maximum altitude 11:08:16 19° 134° (SE) 6,115 14.4 -25.6°
Drops below altitude 10° 11:20:37 10° 99° (E) 6,397 15.2 -23.4°
Sets 11:27:14 0° 84° (E) 6,970 15.9 -22.2°
